Weather History for KMOX - July, 2013

Change the Weather History Date:

Tuesday, July 23, 2013

  Actual Average (KBBB) Record (KBBB)
Temperature  
Mean Temperature 63 °F -  
Max Temperature 75 °F 83 °F - (-1)
Min Temperature 51 °F 59 °F - (-1)
Degree Days  
Heating Degree Days 2    
Growing Degree Days 13 (Base 50)    
Moisture  
Dew Point 55 °F    
Average Humidity 73    
Maximum Humidity 100    
Minimum Humidity 47    
Precipitation  
Precipitation 0.00 in - - ()
Sea Level Pressure  
Sea Level Pressure 30.00 in    
Wind  
Wind Speed 5 mph (NNW)    
Max Wind Speed 10 mph    
Max Gust Speed -    
Visibility 10 miles    
Events      
Averages and records for this station are not official NWS values.
T = Trace of Precipitation, MM = Missing Value Source: NWS Daily Summary

Daily Weather History Graph

Daily Weather History Graph

Search for Another Location

Airport or City:

Trip Planner

Search our weather history database for the weather conditions in past years. The results will help you decide how hot, cold, wet, or windy it might be!

Date:

Astronomy

Jul. 23, 2013 Rise Set
Actual Time 5:57 AM CDT 9:02 PM CDT
Civil Twilight 5:22 AM CDT 9:37 PM CDT
Nautical Twilight 4:36 AM CDT 10:22 PM CDT
Astronomical Twilight 3:41 AM CDT 11:17 PM CDT
Moon 9:22 PM CDT (7/23) 7:14 AM CDT (7/23)
Length of Visible Light 16h 15m
Length of Day
15h 04m
Full, 99% of the Moon is Illuminated
Jul 23
Full
Jul 29
Last Quarter
Aug 6
New
Aug 14
First Quarter
Aug 20
Full

Hourly Weather History & Observations

Time (CDT) Temp. Dew Point Humidity Pressure Visibility Wind Dir Wind Speed Gust Speed Precip Events Conditions
12:09 AM 59.0 °F 55.4 °F 88% 29.93 in 10.0 mi NNW 5.8 mph - N/A   Clear
12:29 AM 59.0 °F 55.4 °F 88% 29.93 in 10.0 mi NNW 5.8 mph - N/A   Clear
12:49 AM 57.2 °F 55.4 °F 94% 29.94 in 10.0 mi NNW 6.9 mph - N/A   Clear
1:09 AM 57.2 °F 55.4 °F 94% 29.94 in 10.0 mi North 5.8 mph - N/A   Clear
1:29 AM 57.2 °F 53.6 °F 88% 29.94 in 10.0 mi NNW 4.6 mph - N/A   Clear
1:49 AM 55.4 °F 53.6 °F 94% 29.94 in 10.0 mi NNW 3.5 mph - N/A   Clear
2:09 AM 55.4 °F 53.6 °F 94% 29.95 in 10.0 mi NNW 6.9 mph - N/A   Clear
2:29 AM 55.4 °F 53.6 °F 94% 29.95 in 10.0 mi NW 5.8 mph - N/A   Clear
2:49 AM 55.4 °F 53.6 °F 94% 29.95 in 10.0 mi NW 5.8 mph - N/A   Clear
3:09 AM 55.4 °F 53.6 °F 94% 29.95 in 10.0 mi NW 5.8 mph - N/A   Clear
3:29 AM 53.6 °F 51.8 °F 94% 29.96 in 10.0 mi WNW 4.6 mph - N/A   Clear
3:49 AM 53.6 °F 53.6 °F 100% 29.95 in 10.0 mi North 5.8 mph - N/A   Clear
4:09 AM 53.6 °F 51.8 °F 94% 29.95 in 10.0 mi NNW 5.8 mph - N/A   Clear
4:29 AM 51.8 °F 51.8 °F 100% 29.95 in 10.0 mi NW 3.5 mph - N/A   Clear
4:49 AM 51.8 °F 51.8 °F 100% 29.96 in 10.0 mi Calm Calm - N/A   Clear
5:09 AM 51.8 °F 51.8 °F 100% 29.96 in 10.0 mi West 3.5 mph - N/A   Clear
5:29 AM 51.8 °F 50.0 °F 94% 29.96 in 10.0 mi WNW 5.8 mph - N/A   Clear
5:49 AM 51.8 °F 51.8 °F 100% 29.98 in 10.0 mi WNW 6.9 mph - N/A   Clear
6:09 AM 51.8 °F 51.8 °F 100% 29.99 in 10.0 mi WNW 5.8 mph - N/A   Clear
6:29 AM 53.6 °F 51.8 °F 94% 30.00 in 10.0 mi NNW 4.6 mph - N/A   Clear
6:49 AM 53.6 °F 51.8 °F 94% 30.00 in 10.0 mi NW 5.8 mph - N/A   Clear
7:09 AM 55.4 °F 53.6 °F 94% 30.00 in 10.0 mi WNW 3.5 mph - N/A   Clear
7:29 AM 55.4 °F 53.6 °F 94% 30.01 in 10.0 mi NNW 4.6 mph - N/A   Clear
7:49 AM 57.2 °F 55.4 °F 94% 30.00 in 10.0 mi North 5.8 mph - N/A   Clear
8:09 AM 60.8 °F 57.2 °F 88% 30.00 in 10.0 mi North 5.8 mph - N/A   Clear
8:29 AM 60.8 °F 57.2 °F 88% 30.01 in 10.0 mi North 4.6 mph - N/A   Clear
8:49 AM 62.6 °F 57.2 °F 82% 30.01 in 10.0 mi NNE 4.6 mph - N/A   Clear
9:09 AM 64.4 °F 57.2 °F 77% 30.01 in 10.0 mi NNE 5.8 mph - N/A   Clear
9:29 AM 66.2 °F 57.2 °F 73% 30.02 in 10.0 mi North 5.8 mph - N/A   Clear
9:49 AM 66.2 °F 57.2 °F 73% 30.03 in 10.0 mi NE 3.5 mph - N/A   Clear
10:09 AM 68.0 °F 57.2 °F 68% 30.03 in 10.0 mi NE 3.5 mph - N/A   Clear
10:29 AM 68.0 °F 57.2 °F 68% 30.03 in 10.0 mi Calm Calm - N/A   Clear
10:49 AM 69.8 °F 57.2 °F 64% 30.03 in 10.0 mi Calm Calm - N/A   Scattered Clouds
11:09 AM 71.6 °F 55.4 °F 57% 30.04 in 10.0 mi NE 3.5 mph - N/A   Scattered Clouds
11:29 AM 71.6 °F 55.4 °F 57% 30.03 in 10.0 mi NNE 5.8 mph - N/A   Clear
11:49 AM 71.6 °F 55.4 °F 57% 30.03 in 10.0 mi NNE 3.5 mph - N/A   Clear
12:09 PM 71.6 °F 55.4 °F 57% 30.02 in 10.0 mi NNE 8.1 mph - N/A   Scattered Clouds
12:29 PM 71.6 °F 53.6 °F 53% 30.03 in 10.0 mi NNE 6.9 mph - N/A   Clear
12:49 PM 73.4 °F 55.4 °F 53% 30.03 in 10.0 mi NNE 6.9 mph - N/A   Scattered Clouds
1:09 PM 71.6 °F 53.6 °F 53% 30.03 in 10.0 mi Calm Calm - N/A   Scattered Clouds
1:29 PM 71.6 °F 53.6 °F 53% 30.02 in 10.0 mi NNE 4.6 mph - N/A   Scattered Clouds
1:49 PM 73.4 °F 53.6 °F 50% 30.02 in 10.0 mi Calm Calm - N/A   Scattered Clouds
2:09 PM 73.4 °F 53.6 °F 50% 30.02 in 10.0 mi NE 5.8 mph - N/A   Scattered Clouds
2:29 PM 73.4 °F 53.6 °F 50% 30.02 in 10.0 mi North 6.9 mph - N/A   Mostly Cloudy
2:49 PM 75.2 °F 55.4 °F 50% 30.02 in 10.0 mi North 8.1 mph - N/A   Scattered Clouds
3:09 PM 73.4 °F 55.4 °F 53% 30.02 in 10.0 mi NW 8.1 mph - N/A   Scattered Clouds
3:29 PM 75.2 °F 55.4 °F 50% 30.02 in 10.0 mi NNW 10.4 mph - N/A   Unknown
3:49 PM 73.4 °F 53.6 °F 50% 30.02 in 10.0 mi NW 5.8 mph - N/A   Clear
4:09 PM 75.2 °F 55.4 °F 50% 30.02 in 10.0 mi NNW 8.1 mph - N/A   Clear
4:29 PM 75.2 °F 53.6 °F 47% 30.02 in 10.0 mi North 5.8 mph - N/A   Scattered Clouds
4:49 PM 73.4 °F 55.4 °F 53% 30.02 in 10.0 mi NNW 8.1 mph - N/A   Scattered Clouds
5:09 PM 75.2 °F 53.6 °F 47% 30.02 in 10.0 mi NNW 5.8 mph - N/A   Scattered Clouds
5:29 PM 75.2 °F 55.4 °F 50% 30.01 in 10.0 mi North 6.9 mph - N/A   Clear
5:49 PM 75.2 °F 55.4 °F 50% 30.01 in 10.0 mi NNW 9.2 mph - N/A   Clear
6:09 PM 73.4 °F 53.6 °F 50% 30.01 in 10.0 mi NNW 5.8 mph - N/A   Clear
6:29 PM 73.4 °F 53.6 °F 50% 30.00 in 10.0 mi NW 8.1 mph - N/A   Clear
6:49 PM 73.4 °F 55.4 °F 53% 30.00 in 10.0 mi North 6.9 mph - N/A   Clear
7:09 PM 73.4 °F 53.6 °F 50% 30.00 in 10.0 mi North 6.9 mph - N/A   Clear
7:29 PM 73.4 °F 55.4 °F 53% 30.00 in 10.0 mi North 4.6 mph - N/A   Clear
7:49 PM 71.6 °F 57.2 °F 60% 30.00 in 10.0 mi North 3.5 mph - N/A   Clear
8:09 PM 71.6 °F 57.2 °F 60% 30.01 in 10.0 mi NNW 4.6 mph - N/A   Clear
8:29 PM 69.8 °F 57.2 °F 64% 30.01 in 10.0 mi Calm Calm - N/A   Clear
8:49 PM 66.2 °F 57.2 °F 73% 30.02 in 10.0 mi NNW 4.6 mph - N/A   Clear
9:09 PM 66.2 °F 57.2 °F 73% 30.02 in 10.0 mi NNW 5.8 mph - N/A   Clear
9:29 PM 64.4 °F 57.2 °F 77% 30.03 in 10.0 mi NNW 5.8 mph - N/A   Scattered Clouds
9:49 PM 64.4 °F 55.4 °F 73% 30.03 in 10.0 mi NNW 4.6 mph - N/A   Clear
10:09 PM 62.6 °F 57.2 °F 82% 30.04 in 10.0 mi Calm Calm - N/A   Clear
10:29 PM 62.6 °F 57.2 °F 82% 30.04 in 10.0 mi NNW 4.6 mph - N/A   Clear
10:49 PM 62.6 °F 55.4 °F 77% 30.04 in 10.0 mi NNW 5.8 mph - N/A   Scattered Clouds
11:09 PM 60.8 °F 55.4 °F 82% 30.03 in 10.0 mi North 6.9 mph - N/A   Scattered Clouds
11:29 PM 60.8 °F 55.4 °F 82% 30.03 in 10.0 mi North 6.9 mph - N/A   Scattered Clouds
11:49 PM 59.0 °F 55.4 °F 88% 30.02 in 10.0 mi North 4.6 mph - N/A   Clear